Location: Acorn Hill
(36.4429°N, 76.5469°W)
Time: 09:12:31
(UTC+00:00)

X-37B - Visible Passes

Search period start: 08 December 2022 00:00
Search period end: 18 December 2022 00:00
Orbit: 277 x 277 km, 45.0° (Epoch: 01 November)

Date Brightness Start Highest point End Pass type
(mag) Time Alt. Az. Time Alt. Az. Time Alt. Az.
08 Dec 2.6 23:32:29 10° WNW 23:33:32 16° NW 23:33:32 16° NW visible
09 Dec 2.9 23:33:43 10° NW 23:34:13 12° NW 23:34:13 12° NW visible
16 Dec 2.9 23:38:55 10° NW 23:39:16 13° NW 23:39:16 13° NW visible
17 Dec 2.6 23:39:32 10° WNW 23:40:21 18° WNW 23:40:21 18° WNW visible
